[[{"header":{"parameterUnit":"m.s-1","parameterCategory":1,"la1":30.2991,"la2":30.254,"lo1":-89.0895,"lo2":-89.0444,"dy":0.0017,"dx":0.0017,"nx":28,"ny":28,"refTime":"2024-06-07T03:00:00:Z","depth":0,"parameterNumber":2,"parameterNumberName":"U-component_of_WINDS"},"data":[0,0,0,0,0,0,0,0,0,0,0,0,0,0,0,0,0,0,0,0,0,0,0,0,0,0,0,0,0,0,0,0,0,0,0,0,0,0,0,0,0,0,0,0,0,0,0,0,0,0,0,0,0,0,0,0,0,0,1.544,1.5441,0,1.5523,1.5523,1.5524,1.5498,1.5496,1.5494,1.5493,1.5581,1.5584,1.5588,0,0,0,0,0,0,0,0,0,0,0,0,0,1.5261,1.5265,1.544,1.5441,1.5442,1.5522,1.5523,1.5525,1.5498,1.5496,1.5494,1.5492,1.5579,1.5584,1.5589,0,0,0,0,0,0,0,0,0,0,0,0,0,1.5341,1.5266,1.544,1.5438,1.5439,1.5522,1.5524,1.5525,1.5499,1.5496,1.5493,1.5491,1.5578,1.5583,1.5589,1.568,0,0,1.5608,1.561,0,0,0,0,0,0,0,0,1.5336,1.5347,1.5438,1.5439,1.544,1.5497,1.5493,1.5577,1.5499,1.5476,1.5493,1.549,1.5555,1.5563,1.5584,1.5684,1.5687,1.5608,1.5612,1.5614,1.5616,0,0,0,0,0,0,0,1.5331,1.5344,1.5473,1.5439,1.544,1.5434,1.5443,1.5508,1.553,1.5478,1.5476,1.5486,1.5555,1.5579,1.5586,1.5689,1.5608,1.5613,1.5617,1.5619,1.5865,1.5868,0,0,0,0,0,0,1.5324,1.5339,1.547,1.5475,1.538,1.544,1.5449,1.5481,1.5529,1.5534,1.5488,1.5485,1.557,1.5579,1.5589,1.5697,1.5614,1.562,1.5623,1.5862,1.5866,1.5869,0,0,0,0,0,0,1.5321,1.5336,1.5467,1.5407,1.5423,1.5446,1.5482,1.5484,1.5508,1.5537,1.5541,1.5508,1.5568,1.5581,1.5657,1.57,1.5623,1.5628,1.5859,1.5863,1.5867,1.5914,0,0,0,0,0,0,1.5316,1.5335,1.5369,1.5408,1.5426,1.5533,1.5485,1.5488,1.5518,1.5514,1.5556,1.5561,1.5567,1.5648,1.5663,1.5706,1.5633,1.5855,1.5861,1.5866,1.5908,1.5919,1.5928,0,0,0,0,0,1.5309,1.538,1.5371,1.5387,1.5469,1.5535,1.5546,1.555,1.5521,1.5556,1.5574,1.556,1.5692,1.5656,1.5672,1.5719,1.5852,1.5859,1.5865,1.5904,1.5917,1.5928,0,0,0,0,0,0,1.5348,1.5385,1.5376,1.5461,1.5495,1.553,1.5574,1.5564,1.5608,1.5602,1.5607,1.5617,1.5694,1.5714,1.5673,1.5808,1.5768,1.5778,1.5792,1.5805,1.5814,1.5808,1.5638,0,0,0,0,0,1.5366,1.5416,1.5446,1.5518,1.5535,1.5552,1.5581,1.5581,1.5617,1.5631,1.5656,1.5692,1.5741,1.5774,1.5821,1.5911,1.592,1.5951,1.5961,1.5969,1.5977,1.6025,1.6039,1.589,1.589,1.589,0,0,1.5405,1.5431,1.5462,1.5527,1.5553,1.5604,1.5564,1.5621,1.5659,1.5641,1.5713,1.5732,1.5772,1.5855,1.5893,1.5874,1.602,1.5977,1.5983,1.5988,1.6033,1.6047,1.606,1.5895,1.5894,1.5893,0,0,1.5501,1.5526,1.5588,1.5615,1.5655,1.5665,1.568,1.5717,1.5728,1.5801,1.5787,1.5833,1.5919,1.5948,1.5974,1.6079,1.6067,1.6095,1.6147,1.6193,1.6205,1.6215,1.6252,1.6265,1.6103,1.6104,1.6104,0,1.5544,1.562,1.5622,1.5679,1.5708,1.5691,1.5754,1.578,1.5834,1.5854,1.5832,1.5938,1.5964,1.6053,1.6078,1.61,1.6117,1.609,1.6203,1.6213,1.6223,1.6258,1.6272,1.6107,1.6106,1.6106,1.6106,0,1.5671,1.5724,1.577,1.582,1.5854,1.5914,1.5925,1.5959,1.5956,1.5968,1.6042,1.6072,1.6125,1.6146,1.6145,1.6235,1.6221,1.6201,1.6162,1.624,1.6273,1.6287,1.6111,1.611,1.6109,1.6108,0,0,1.5795,1.5844,1.5861,1.5883,1.5925,1.5966,1.6025,1.6075,1.6104,1.6141,1.619,1.6262,1.6243,1.6273,1.6274,1.6315,1.6395,1.6289,1.629,1.6307,1.6495,1.651,1.6525,1.6387,1.639,1.6392,1.6491,0,1.5894,1.5997,1.5999,1.6093,1.6142,1.6126,1.6177,1.6209,1.6222,1.6265,1.628,1.6331,1.6302,1.6319,1.6359,1.6377,1.6433,1.637,1.6433,1.6435,1.6423,1.6543,1.6559,1.6651,1.6504,1.6507,1.6508,0,1.6024,1.6063,1.6162,1.6195,1.6215,1.6261,1.6307,1.6348,1.6384,1.639,1.6422,1.6417,1.6477,1.6435,1.6518,1.6475,1.6501,1.6514,1.6518,1.6524,1.6476,1.6551,1.6681,1.6695,1.6529,1.6527,1.6526,0,1.6103,1.6181,1.625,1.6269,1.631,1.6342,1.6361,1.6393,1.6423,1.6463,1.6482,1.6529,1.6555,1.6591,1.6599,1.6568,1.6682,1.6641,1.6689,1.6689,1.6714,1.6712,1.6849,1.6731,1.6731,1.6731,1.6731,0,1.6214,1.6275,1.6286,1.6328,1.6395,1.6397,1.6464,1.6481,1.6509,1.6554,1.6544,1.6587,1.6595,1.6639,1.6646,1.6713,1.6725,1.6732,1.6733,1.6733,1.6732,1.675,1.6743,1.6735,1.6734,1.6733,1.6732,0,1.6314,1.6324,1.6398,1.6429,1.6439,1.6487,1.6514,1.6555,1.6566,1.6623,1.6637,1.6655,1.6707,1.6718,1.678,1.6784,1.6864,1.6859,1.6851,1.6851,1.6898,1.6893,1.7051,1.7071,1.6941,1.6942,1.6943,0,1.6384,1.643,1.6466,1.6494,1.6514,1.6561,1.659,1.6594,1.6625,1.6668,1.6703,1.6753,1.6794,1.6877,1.6896,1.6943,1.6939,1.6991,1.6946,1.6944,1.6939,1.6936,1.694,1.7,1.7001,1.7002,1.7003,0,1.6506,1.6508,1.655,1.6594,1.6628,1.6663,1.6697,1.6721,1.673,1.6765,1.6817,1.6848,1.691,1.696,1.7007,1.7027,1.7016,1.7017,1.703,1.703,1.7024,1.7027,1.6874,1.7013,1.7012,1.7012,1.7011,1.7011,1.6592,1.6632,1.6662,1.6709,1.6734,1.6765,1.6804,1.682,1.6863,1.6912,1.6912,1.6969,1.7002,1.7063,1.7086,1.713,1.7114,1.7134,1.7139,1.7143,1.7147,1.7017,1.7139,1.7139,1.7138,1.7138,1.7138,0,1.6713,1.6731,1.6774,1.682,1.6857,1.6843,1.6878,1.691,1.696,1.6991,1.703,1.7089,1.7137,1.7159,1.7207,1.7238,1.7234,1.725,1.7248,1.7252,1.7159,1.7143,1.7252,1.7252,1.7252,1.7252,1.7252,1.7252,1.678,1.6845,1.6851,1.6929,1.6947,1.7001,1.7023,1.7051,1.7075,1.7141,1.718,1.7194,1.7222,1.7271,1.7314,1.7319,1.7337,1.7355,1.7358,1.7271,1.7259,1.7248,1.7232,1.7359,1.7359,1.7447,1.7448,1.7448]},{"header":{"parameterUnit":"m.s-1","parameterCategory":1,"la1":30.2991,"la2":30.254,"lo1":-89.0895,"lo2":-89.0444,"dy":0.0017,"dx":0.0017,"nx":28,"ny":28,"refTime":"2024-06-07T03:00:00:Z","depth":0,"parameterNumber":3,"parameterNumberName":"V-component_of_WINDS"},"data":[0,0,0,0,0,0,0,0,0,0,0,0,0,0,0,0,0,0,0,0,0,0,0,0,0,0,0,0,0,0,0,0,0,0,0,0,0,0,0,0,0,0,0,0,0,0,0,0,0,0,0,0,0,0,0,0,0,0,-0.4675,-0.4675,0,-0.4661,-0.4661,-0.4661,-0.4656,-0.4656,-0.4656,-0.4656,-0.4641,-0.4641,-0.464,0,0,0,0,0,0,0,0,0,0,0,0,0,-0.4697,-0.4697,-0.4675,-0.4675,-0.4675,-0.4661,-0.4661,-0.4661,-0.4656,-0.4656,-0.4656,-0.4656,-0.4641,-0.4641,-0.464,0,0,0,0,0,0,0,0,0,0,0,0,0,-0.4686,-0.4697,-0.4675,-0.4671,-0.467,-0.4661,-0.4661,-0.4661,-0.4656,-0.4656,-0.4656,-0.4656,-0.4641,-0.4641,-0.464,-0.4634,0,0,-0.4638,-0.4638,0,0,0,0,0,0,0,0,-0.4687,-0.4685,-0.4672,-0.4671,-0.4671,-0.466,-0.4663,-0.4652,-0.4656,-0.4661,-0.4656,-0.4656,-0.4647,-0.4646,-0.4643,-0.4634,-0.4633,-0.4638,-0.4638,-0.4637,-0.4637,0,0,0,0,0,0,0,-0.4687,-0.4686,-0.467,-0.4672,-0.4671,-0.4669,-0.4668,-0.4661,-0.4654,-0.4661,-0.4661,-0.4659,-0.4647,-0.4644,-0.4643,-0.4633,-0.4638,-0.4637,-0.4637,-0.4637,-0.4616,-0.4616,0,0,0,0,0,0,-0.4689,-0.4686,-0.467,-0.4669,-0.4679,-0.4669,-0.4667,-0.4664,-0.4654,-0.4653,-0.4659,-0.4659,-0.4645,-0.4644,-0.4642,-0.4634,-0.4637,-0.4637,-0.4636,-0.4616,-0.4616,-0.4616,0,0,0,0,0,0,-0.4689,-0.4688,-0.4671,-0.4678,-0.4675,-0.4668,-0.4664,-0.4663,-0.466,-0.4653,-0.4651,-0.4657,-0.4645,-0.4643,-0.4636,-0.4634,-0.4636,-0.4636,-0.4617,-0.4616,-0.4616,-0.4619,0,0,0,0,0,0,-0.469,-0.4688,-0.4686,-0.4678,-0.4675,-0.4665,-0.4664,-0.4663,-0.4659,-0.4659,-0.4651,-0.4649,-0.4645,-0.4637,-0.4635,-0.4633,-0.4635,-0.4617,-0.4617,-0.4616,-0.4619,-0.4619,-0.4618,0,0,0,0,0,-0.4691,-0.4687,-0.4686,-0.4684,-0.4672,-0.4665,-0.4663,-0.4659,-0.4659,-0.4657,-0.4652,-0.465,-0.4634,-0.4636,-0.4635,-0.4632,-0.4617,-0.4617,-0.4616,-0.4619,-0.4619,-0.4618,0,0,0,0,0,0,-0.4695,-0.4686,-0.4684,-0.4678,-0.4672,-0.4664,-0.4661,-0.4659,-0.4653,-0.4653,-0.4647,-0.4645,-0.4638,-0.4634,-0.4637,-0.4625,-0.4625,-0.4625,-0.4628,-0.4628,-0.4628,-0.4629,-0.4635,0,0,0,0,0,-0.4695,-0.469,-0.4682,-0.4677,-0.4675,-0.4668,-0.4665,-0.4662,-0.4656,-0.4653,-0.4648,-0.4642,-0.4635,-0.4631,-0.4625,-0.4618,-0.4616,-0.4615,-0.4615,-0.4615,-0.4614,-0.461,-0.4609,-0.4615,-0.4615,-0.4615,0,0,-0.4696,-0.469,-0.4687,-0.4678,-0.4673,-0.4668,-0.4666,-0.4661,-0.4656,-0.4652,-0.4645,-0.4641,-0.4633,-0.4626,-0.4622,-0.4622,-0.4612,-0.4615,-0.4615,-0.4614,-0.4609,-0.4609,-0.4608,-0.4615,-0.4615,-0.4615,0,0,-0.4694,-0.4689,-0.4684,-0.4679,-0.4672,-0.4667,-0.4666,-0.4658,-0.4655,-0.4648,-0.4644,-0.4639,-0.4629,-0.4623,-0.4619,-0.4614,-0.4612,-0.4612,-0.4611,-0.4607,-0.4606,-0.4606,-0.4604,-0.4603,-0.4612,-0.4612,-0.4612,0,-0.4695,-0.4687,-0.4682,-0.4676,-0.4672,-0.4668,-0.4662,-0.4658,-0.4649,-0.4646,-0.4646,-0.4632,-0.4627,-0.4618,-0.4617,-0.4614,-0.4612,-0.4613,-0.4607,-0.4606,-0.4606,-0.4604,-0.4603,-0.4612,-0.4612,-0.4612,-0.4612,0,-0.4688,-0.4683,-0.4679,-0.4671,-0.4666,-0.4661,-0.4655,-0.465,-0.4647,-0.4643,-0.4635,-0.4629,-0.4621,-0.4618,-0.4616,-0.4609,-0.4609,-0.4608,-0.4608,-0.4605,-0.4603,-0.4602,-0.4612,-0.4612,-0.4612,-0.4612,0,0,-0.4689,-0.4677,-0.4676,-0.4672,-0.4663,-0.4658,-0.4652,-0.4645,-0.4641,-0.4635,-0.4629,-0.462,-0.4619,-0.4614,-0.4611,-0.4607,-0.4602,-0.4606,-0.4606,-0.4605,-0.4594,-0.4595,-0.4594,-0.4601,-0.4601,-0.46,-0.4594,0,-0.4685,-0.4675,-0.467,-0.4661,-0.4655,-0.4651,-0.4646,-0.4639,-0.4635,-0.4629,-0.4624,-0.4617,-0.4617,-0.4614,-0.4609,-0.4604,-0.46,-0.4604,-0.4595,-0.4595,-0.4597,-0.4593,-0.4594,-0.4588,-0.4594,-0.4593,-0.4593,0,-0.468,-0.4674,-0.4665,-0.4656,-0.4653,-0.4649,-0.4641,-0.4635,-0.4628,-0.4625,-0.4619,-0.4616,-0.4609,-0.4609,-0.4599,-0.4602,-0.4598,-0.4595,-0.4594,-0.4593,-0.4594,-0.4591,-0.4587,-0.4586,-0.4592,-0.4592,-0.4592,0,-0.4681,-0.467,-0.4663,-0.466,-0.4649,-0.4646,-0.4641,-0.4634,-0.463,-0.4623,-0.462,-0.4612,-0.4608,-0.4602,-0.4596,-0.4597,-0.4586,-0.4586,-0.4583,-0.4583,-0.4581,-0.4581,-0.4575,-0.4579,-0.4579,-0.4579,-0.4579,0,-0.4678,-0.4672,-0.4663,-0.4659,-0.4652,-0.4646,-0.464,-0.4635,-0.4628,-0.4623,-0.4618,-0.4613,-0.4605,-0.4599,-0.4594,-0.4586,-0.4585,-0.4582,-0.458,-0.4582,-0.4582,-0.4579,-0.4579,-0.4578,-0.4578,-0.4578,-0.4578,0,-0.4678,-0.4672,-0.4664,-0.4654,-0.4652,-0.4647,-0.4639,-0.4635,-0.4629,-0.4622,-0.462,-0.4612,-0.4604,-0.4598,-0.4587,-0.4584,-0.4576,-0.4575,-0.4578,-0.4578,-0.4575,-0.4575,-0.4567,-0.4565,-0.457,-0.4569,-0.4569,0,-0.4676,-0.4672,-0.4662,-0.4658,-0.4653,-0.4647,-0.4642,-0.4635,-0.4631,-0.4621,-0.4618,-0.4609,-0.4602,-0.459,-0.4583,-0.4575,-0.4573,-0.4571,-0.4572,-0.4573,-0.4573,-0.4573,-0.4572,-0.4571,-0.4571,-0.4571,-0.4571,0,-0.4674,-0.4671,-0.4664,-0.4656,-0.4651,-0.4644,-0.4637,-0.4634,-0.4626,-0.4621,-0.4613,-0.4607,-0.4597,-0.4588,-0.4579,-0.4574,-0.4571,-0.457,-0.4569,-0.4571,-0.4573,-0.4571,-0.4578,-0.4571,-0.4571,-0.4571,-0.4571,-0.4571,-0.4673,-0.4668,-0.466,-0.4653,-0.4647,-0.4641,-0.4636,-0.463,-0.4623,-0.4614,-0.461,-0.4602,-0.4594,-0.4581,-0.4576,-0.4569,-0.4569,-0.4567,-0.4566,-0.4566,-0.4566,-0.4574,-0.4567,-0.4567,-0.4567,-0.4567,-0.4567,0,-0.467,-0.4664,-0.4657,-0.4648,-0.4642,-0.4639,-0.4632,-0.4627,-0.4619,-0.4612,-0.4605,-0.4595,-0.4587,-0.4579,-0.457,-0.4566,-0.4564,-0.4564,-0.4564,-0.4563,-0.4567,-0.4569,-0.4565,-0.4565,-0.4565,-0.4565,-0.4565,-0.4565,-0.4667,-0.466,-0.4656,-0.4645,-0.4639,-0.4631,-0.4626,-0.462,-0.4614,-0.4604,-0.4597,-0.4592,-0.4584,-0.4574,-0.4566,-0.4564,-0.4561,-0.4561,-0.4559,-0.4563,-0.4563,-0.4563,-0.4565,-0.456,-0.456,-0.4555,-0.4555,-0.4555]}]]